Location: Sebastopol
(38.4021°N, 122.8239°W)
Time: 14:23:42
(UTC+00:00)

Cosmos 2228 - Pass Details

Date: 29 October 2020
Orbit: 590 x 617 km, 82.5° (Epoch: 01 December)

Event Time Altitude Azimuth Distance (km) Brightness Sun altitude
Rises 12:56:53 0° 348° (NNW) 2,882 6.3 -19.8°
Reaches altitude 10° 12:59:08 10° 344° (NNW) 1,977 5.5 -19.3°
Maximum altitude 13:03:26 58° 266° (W) 717 3.0 -18.5°
Drops below altitude 10° 13:07:43 10° 187° (S) 1,971 5.6 -17.7°
Sets 13:09:57 0° 184° (S) 2,873 6.5 -17.2°
